TimeEST,TemperatureF,Dew PointF,Humidity,Sea Level PressureIn,VisibilityMPH,Wind Direction,Wind SpeedMPH,Gust SpeedMPH,PrecipitationIn,Events,Conditions,WindDirDegrees,DateUTC
12:15 AM,41.4,30.0,64,30.07,10.0,NE,3.5,-,N/A,,Overcast,40,2013-02-26 05:15:00
12:35 AM,41.2,29.3,63,30.07,10.0,NNE,4.6,-,N/A,,Overcast,30,2013-02-26 05:35:00
1:15 AM,41.4,29.5,63,30.08,10.0,Calm,Calm,-,N/A,,Overcast,0,2013-02-26 06:15:00
1:35 AM,41.0,30.2,65,30.07,10.0,ENE,3.5,-,N/A,,Overcast,60,2013-02-26 06:35:00
1:55 AM,41.0,30.2,65,30.07,10.0,NE,3.5,-,N/A,,Overcast,50,2013-02-26 06:55:00
2:15 AM,41.0,30.4,66,30.05,10.0,Calm,Calm,-,N/A,,Overcast,0,2013-02-26 07:15:00
2:35 AM,41.0,30.7,67,30.04,10.0,NE,3.5,-,N/A,,Overcast,40,2013-02-26 07:35:00
2:55 AM,41.0,31.1,68,30.04,10.0,NE,4.6,-,N/A,,Overcast,40,2013-02-26 07:55:00
3:15 AM,41.0,31.1,68,30.02,10.0,NE,3.5,-,N/A,,Overcast,40,2013-02-26 08:15:00
3:35 AM,40.6,31.1,69,30.00,10.0,NE,4.6,-,N/A,,Overcast,50,2013-02-26 08:35:00
3:55 AM,41.0,32.0,70,30.00,10.0,ENE,4.6,-,N/A,,Overcast,60,2013-02-26 08:55:00
4:15 AM,41.2,32.2,70,30.00,10.0,ENE,4.6,-,N/A,,Overcast,60,2013-02-26 09:15:00
4:35 AM,41.5,33.1,72,29.99,10.0,ENE,5.8,-,N/A,,Overcast,60,2013-02-26 09:35:00
5:15 AM,41.4,36.5,83,29.98,7.0,ENE,3.5,-,0.01,Rain,Rain,60,2013-02-26 10:15:00
5:35 AM,40.6,37.9,90,29.96,7.0,Calm,Calm,-,0.02,Rain,Light Rain,0,2013-02-26 10:35:00
5:55 AM,41.0,38.8,92,29.95,7.0,Calm,Calm,-,0.03,Rain,Rain,0,2013-02-26 10:55:00
6:15 AM,41.5,40.1,95,29.95,7.0,ENE,5.8,-,N/A,Rain,Rain,70,2013-02-26 11:15:00
6:35 AM,41.9,40.3,94,29.95,7.0,ENE,4.6,-,N/A,Rain,Light Rain,70,2013-02-26 11:35:00
6:55 AM,42.1,41.0,96,29.95,5.0,ENE,3.5,-,0.01,Rain,Rain,60,2013-02-26 11:55:00
7:15 AM,42.4,41.5,97,29.94,5.0,NE,3.5,-,0.01,Rain,Rain,50,2013-02-26 12:15:00
7:35 AM,43.3,42.4,97,29.93,5.0,NE,4.6,-,0.02,Rain,Light Rain,50,2013-02-26 12:35:00
7:55 AM,43.7,42.8,97,29.92,3.0,ENE,8.1,-,0.03,Rain,Rain,60,2013-02-26 12:55:00
8:15 AM,44.2,43.7,98,29.93,2.5,ENE,5.8,-,0.03,Rain,Rain,70,2013-02-26 13:15:00
8:35 AM,45.0,44.6,99,29.91,3.0,ENE,8.1,16.1,0.05,Rain,Light Rain,70,2013-02-26 13:35:00
9:15 AM,46.9,46.8,99,29.89,2.5,ENE,6.9,-,0.04,Rain,Light Rain,60,2013-02-26 14:15:00
9:55 AM,49.1,49.1,100,29.86,4.0,ENE,8.1,-,0.06,Rain,Light Rain,70,2013-02-26 14:55:00
10:35 AM,50.7,50.7,100,29.84,4.0,East,6.9,-,0.05,Rain,Rain,80,2013-02-26 15:35:00
10:55 AM,52.2,52.2,100,29.83,4.0,East,8.1,-,0.09,Rain,Light Rain,80,2013-02-26 15:55:00
11:15 AM,53.1,53.1,100,29.81,5.0,East,9.2,-,0.02,Rain,Light Rain,80,2013-02-26 16:15:00
11:35 AM,54.1,54.1,100,29.80,7.0,East,6.9,-,0.02,,Drizzle,90,2013-02-26 16:35:00
11:55 AM,55.2,55.2,100,29.79,7.0,East,6.9,-,0.03,Rain,Light Rain,80,2013-02-26 16:55:00
12:35 PM,57.0,57.0,100,29.73,5.0,ENE,6.9,-,0.05,Rain,Rain,70,2013-02-26 17:35:00
12:55 PM,58.1,58.1,100,29.72,3.0,East,5.8,-,0.11,Rain,Heavy Rain,80,2013-02-26 17:55:00
1:15 PM,58.6,58.6,100,29.70,2.0,ENE,5.8,-,0.13,Rain,Heavy Rain,70,2013-02-26 18:15:00
1:35 PM,59.2,59.2,100,29.68,7.0,East,8.1,-,0.18,Rain,Rain,80,2013-02-26 18:35:00
2:15 PM,60.1,60.1,100,29.66,5.0,West,5.8,9.2,0.12,Rain,Light Rain,270,2013-02-26 19:15:00
2:35 PM,61.0,61.0,100,29.65,5.0,East,5.8,-,0.12,Rain,Light Rain,80,2013-02-26 19:35:00
2:55 PM,62.6,62.6,100,29.62,10.0,East,4.6,-,0.12,,Overcast,80,2013-02-26 19:55:00
3:15 PM,64.4,64.4,100,29.61,10.0,SSE,10.4,21.9,N/A,,Overcast,160,2013-02-26 20:15:00
3:35 PM,66.4,66.4,100,29.60,10.0,SSE,10.4,19.6,N/A,,Overcast,150,2013-02-26 20:35:00
3:55 PM,67.1,65.5,95,29.59,7.0,SSE,10.4,19.6,N/A,,Overcast,160,2013-02-26 20:55:00
4:15 PM,68.0,65.5,92,29.58,7.0,South,15.0,19.6,N/A,,Overcast,170,2013-02-26 21:15:00
4:35 PM,68.0,64.8,89,29.57,5.0,South,12.7,20.7,N/A,,Overcast,170,2013-02-26 21:35:00
4:55 PM,68.9,64.8,87,29.59,7.0,SSW,15.0,20.7,N/A,,Overcast,200,2013-02-26 21:55:00
5:15 PM,68.9,64.4,86,29.58,7.0,South,12.7,19.6,N/A,,Overcast,190,2013-02-26 22:15:00
5:35 PM,68.9,64.4,86,29.57,7.0,South,11.5,-,N/A,,Scattered Clouds,180,2013-02-26 22:35:00
5:55 PM,68.0,64.0,87,29.56,7.0,South,10.4,18.4,N/A,,Clear,180,2013-02-26 22:55:00
6:15 PM,66.9,63.9,90,29.56,5.0,South,8.1,-,N/A,,Clear,170,2013-02-26 23:15:00
6:35 PM,66.0,63.9,93,29.57,7.0,South,4.6,-,N/A,,Clear,170,2013-02-26 23:35:00
6:55 PM,64.6,63.3,96,29.57,7.0,South,5.8,-,N/A,,Clear,170,2013-02-26 23:55:00
7:15 PM,64.4,63.5,97,29.58,7.0,SSE,8.1,-,N/A,,Clear,160,2013-02-27 00:15:00
7:35 PM,63.7,62.8,97,29.59,7.0,South,5.8,-,N/A,,Clear,170,2013-02-27 00:35:00
7:55 PM,63.5,62.6,97,29.60,7.0,South,4.6,-,N/A,,Clear,170,2013-02-27 00:55:00
8:15 PM,62.8,62.1,97,29.60,7.0,South,4.6,-,N/A,,Clear,190,2013-02-27 01:15:00
8:35 PM,62.8,62.1,97,29.60,7.0,South,5.8,-,N/A,,Clear,170,2013-02-27 01:35:00
8:55 PM,62.8,62.1,97,29.62,7.0,SW,4.6,-,N/A,,Clear,230,2013-02-27 01:55:00
9:15 PM,62.8,61.9,97,29.63,7.0,SW,3.5,-,N/A,,Mostly Cloudy,230,2013-02-27 02:15:00
9:35 PM,62.8,61.7,96,29.64,10.0,West,8.1,-,N/A,,Overcast,280,2013-02-27 02:35:00
9:55 PM,61.7,58.8,90,29.65,10.0,West,8.1,-,N/A,,Overcast,280,2013-02-27 02:55:00
10:15 PM,60.8,56.3,85,29.66,10.0,West,8.1,-,N/A,,Overcast,270,2013-02-27 03:15:00
10:35 PM,59.2,55.4,87,29.67,10.0,West,9.2,-,N/A,,Overcast,270,2013-02-27 03:35:00
10:55 PM,58.1,54.1,87,29.67,10.0,WSW,3.5,-,N/A,,Mostly Cloudy,250,2013-02-27 03:55:00
11:15 PM,57.4,53.6,87,29.66,10.0,West,4.6,-,N/A,,Overcast,280,2013-02-27 04:15:00
11:35 PM,56.7,52.9,87,29.66,10.0,West,4.6,-,N/A,,Overcast,270,2013-02-27 04:35:00
11:55 PM,55.9,52.3,88,29.67,10.0,West,3.5,-,N/A,,Mostly Cloudy,280,2013-02-27 04:55:00